Location: Ljubljana
(46.0553°N, 14.5144°E)
Time: 12:50:20
(UTC+01:00)

ISS - Visible Passes

Search period start: 28 October 2020 00:00
Search period end: 07 November 2020 00:00
Orbit: 417 x 420 km, 51.6° (Epoch: 28 October)

Date Brightness Start Highest point End Pass type
(mag) Time Alt. Az. Time Alt. Az. Time Alt. Az.
28 Oct -0.2 03:36:08 11° E 03:36:08 11° E 03:36:22 10° ENE visible
28 Oct -3.5 05:09:06 38° WNW 05:10:03 55° NNW 05:13:22 10° ENE visible
29 Oct -2.3 04:23:27 37° NE 04:23:27 37° NE 04:25:37 10° ENE visible
29 Oct -2.6 05:56:24 11° WNW 05:59:22 31° N 06:02:26 10° ENE visible
30 Oct -0.2 03:37:44 11° ENE 03:37:44 11° ENE 03:37:50 10° ENE visible
30 Oct -2.8 05:10:41 30° NW 05:11:28 35° NNW 05:14:37 10° ENE visible
31 Oct -1.9 04:24:55 28° NE 04:24:55 28° NE 04:26:50 10° ENE visible
31 Oct -2.5 05:57:52 10° WNW 06:00:53 30° N 06:03:55 10° ENE visible
01 Nov -2.5 05:12:04 26° NNW 05:12:58 30° N 05:15:59 10° ENE visible
02 Nov -1.7 04:26:15 24° NNE 04:26:15 24° NNE 04:28:06 10° ENE visible
02 Nov -2.7 05:59:11 10° WNW 06:02:22 37° NNE 06:05:32 10° E visible
03 Nov -2.5 05:13:22 26° NNW 05:14:27 32° N 05:17:32 10° ENE visible
04 Nov -1.8 04:27:33 25° NE 04:27:33 25° NE 04:29:34 10° ENE visible
04 Nov -3.5 06:00:30 11° WNW 06:03:43 62° NNE 06:07:02 10° ESE visible
05 Nov -3.1 05:14:42 31° NW 05:15:51 46° NNE 05:19:07 10° E visible
06 Nov -2.0 04:28:56 30° NE 04:28:56 30° NE 04:31:08 10° E visible
06 Nov -3.6 06:01:53 12° WNW 06:04:54 62° SSW 06:08:13 10° SE visible
